Location: Summit Observatory
(39.5293°N, 75.7290°W)
Time: 04:45:26
(UTC-05:00)

XW-2F - Pass Details

Date: 28 October 2019
Orbit: 502 x 524 km, 97.5° (Epoch: 12 November)

Event Time Altitude Azimuth Distance (km) Brightness Sun altitude
Rises 06:29:44 0° 24° (NNE) 2,608 ? -11.5°
Reaches altitude 10° 06:32:04 10° 37° (NE) 1,721 ? -11.1°
Maximum altitude 06:35:13 26° 96° (E) 1,014 ? -10.5°
Drops below altitude 10° 06:38:23 10° 155° (SSE) 1,717 ? -9.9°
Sets 06:40:42 0° 168° (SSE) 2,600 ? -9.4°
